User: anonymous   Login
Location: Unspecified
(0.0000°N, 0.0000°E)
Time: 07:19:52
(UTC+00:00)
Language:

WGS 5 (USA 243) - Orbit

View from above orbital plane
View from above orbital plane
View from above satellite
View from above satellite

Ground track
Ground track

The orbit data is extracted from the following two-line orbital elements,

1 39168U 13024A   17200.35724224 0.00000000  00000-0  00000-0 0    09
2 39168   0.0301  13.4098 0002002  88.3893 271.6538  1.00270000    03
Epoch (UTC): 19 July 2017 08:34:25
Eccentricity: 0.0002002
inclination: 0.0301°
perigee height: 35778 km
apogee height: 35795 km
right ascension of ascending node: 13.4098°
argument of perigee: 88.3893°
revolutions per day: 1.00270000
mean anomaly at epoch: 271.6538°
orbit number at epoch: 0

The dashed part of the orbit path shows where the satellite is in the earth's shadow,  

DLR